www.pogodaiklimat.ru

Погода и климат >> Архив погоды >> Португалия >> Аэропорт Лажеша


ПОГОДА в Аэропорту Лажеша

  • Прогноз погоды в Аэропорту Лажеша
  • Монитор погоды в Аэропорту Лажеша

АРХИВ ПОГОДЫ в Аэропорту Лажеша

Время (UTC), дата Ветер
(напр.,м/с)
 
Видим.   Явления Облачность Т
(С)
Тd
(С)
f
(%)
Тe
(С)
Тes
(С)
Комфортность P
(гПа)
Po
(гПа)
Тmin
(С)
Tmax
(С)
R
(мм)
R24
(мм)
S
(см)
00 11.06 Ю 2 10 км ясно +17.2 +13.1 77 +18 +18 1030.2 1023.7
03 11.06 ЮВ 2 10 км 1/1 480 м
[Cu hum]
+16.9 +13.8 82 +17 +17 1028.8 1022.4
06 11.06 штиль 0 10 км 3/3 270 м
[Cu hum]
+17.4 +15.5 89 +17 +17 1028.5 1022.0 +16.8
09 11.06 ЮВ 4 10 км 4/4 330 м
[Cu Sc]
+18.8 +16.7 88 +20 +22 1029.0 1022.5
12 11.06 Ю 6 10 км 6/6 540 м
[Cu Sc]
+21.5 +16.2 72 +25 +28 комфорт 1029.3 1022.9
15 11.06 Ю 7 10 км 6/6 480 м
[Cu Sc]
+22.8 +16.6 68 +27 +30 душно 1029.0 1022.5
18 11.06 Ю 6 10 км 5/5 600 м
[Cu Sc]
+22.2 +16.1 68 +26 +28 душно 1028.5 1022.0 +22.8
21 11.06 ЮВ 3 10 км 3/3 450 м
[Cu hum Ac trans]
+19.2 +16.6 85 +21 +21 комфорт 1028.0 1021.5
00 12.06 ЮВ 3 10 км 1/1 450 м
[Cu hum]
+18.2 +16.0 87 +19 +19 1028.7 1022.2
03 12.06 ЮВ 5 10 км 5/5 450 м
[Cu Sc]
+18.2 +15.9 86 +18 +18 1027.1 1020.7
06 12.06 ЮВ 4 10 км 9/9 450 м
[Cu Sc]
+18.2 +15.6 85 +18 +18 1026.6 1020.1 +17.5
09 12.06 ЮВ 4 10 км 1/1 600 м
[Cu Sc]
+18.6 +14.7 78 +19 +22 1027.1 1020.7
12 12.06 ЮВ 5 10 км 1/1 750 м
[Cu hum]
+21.0 +15.4 70 +24 +33 комфорт 1027.1 1020.7
15 12.06 ЮВ 6 10 км 3/3 750 м
[Cu Sc Ci fib]
+21.2 +15.5 70 +24 +30 комфорт 1026.1 1019.6
18 12.06 ЮВ 5 10 км 4/4 750 м
[Cu Sc Ci fib]
+20.8 +14.7 68 +24 +26 комфорт 1025.6 1019.1 +21.8
21 12.06 ЮВ 3 10 км 8/4 700 м
[Cu Sc Ac trans Ci fib]
+19.0 +14.9 77 +20 +20 1025.3 1018.8
00 13.06 ЮВ 3 10 км 8/6 700 м
[Cu Sc Ac trans]
+18.5 +15.1 81 +19 +19 1025.3 1018.8
03 13.06 Ю 2 10 км 8/6 700 м
[Cu Sc Ac trans]
+18.0 +14.9 82 +19 +19 1023.9 1017.4
06 13.06 ЮВ 4 10 км 8/8 600 м
[Cu Sc]
+18.3 +14.7 80 +19 +19 1022.9 1016.4 +18.0
09 13.06 ЮВ 4 10 км 9/9 600 м
[Cu Sc]
+18.8 +14.0 74 +20 +20 1023.4 1016.9
12 13.06 ЮВ 6 10 км 9/9 540 м
[Cu Sc]
+20.6 +15.3 72 +23 +24 комфорт 1023.1 1016.6
15 13.06 ЮВ 6 10 км 9/9 750 м
[Cu Sc]
+20.0 +15.5 75 +22 +23 комфорт 1022.7 1016.3
18 13.06 ЮВ 6 10 км 9/9 750 м
[Cu Sc]
+20.3 +15.9 76 +23 +23 комфорт 1021.9 1015.4 +20.8
21 13.06 ЮВ 5 10 км 9/4 420 м
[Cu Sc Ac trans Ci fib]
+18.8 +15.4 81 +20 +20 1022.4 1015.9
00 14.06 ЮВ 4 10 км 9/9 420 м
[Cu Sc]
+18.4 +15.0 81 +19 +19 1022.2 1015.7
03 14.06 Ю 2 10 км 9/9 420 м
[Cu Sc]
+17.2 +15.3 89 +18 +18 1021.2 1014.7
06 14.06 ЮВ 2 10 км 8/8 480 м
[Cu Sc]
+16.8 +15.6 93 +17 +17 1020.9 1014.4 +16.6
09 14.06 ЮВ 4 10 км 8/8 750 м
[Cu Sc Ci fib]
+19.1 +13.1 68 +20 +21 1021.7 1015.2
12 14.06 ЮВ 5 10 км 3/3 800 м
[Cu Sc Ci fib]
+20.9 +13.0 61 +23 +30 комфорт 1021.4 1014.9
15 14.06 ЮВ 6 10 км 3/3 840 м
[Cu med, cong Ci fib]
+22.4 +14.8 62 +26 +31 жарко 1020.9 1014.4
18 14.06 ЮВ 6 10 км 3/3 750 м
[Cu Sc Ci fib]
+21.5 +15.5 69 +25 +27 комфорт 1020.0 1013.5 +22.6
21 14.06 ЮВ 4 10 км 4/4 600 м
[Cu Sc]
+19.6 +15.6 78 +22 +22 комфорт 1020.0 1013.5
00 15.06 ЮВ 4 10 км 6/6 600 м
[Cu Sc]
+19.0 +15.9 82 +20 +20 1020.2 1013.7
03 15.06 ЮВ 5 10 км 8/8 600 м
[Cu Sc]
+18.8 +16.7 88 +20 +20 1018.3 1011.9
06 15.06 ЮВ 4 10 км 8/8 600 м
[Cu Sc]
+18.2 +16.7 91 +18 +18 1017.5 1011.0 +18.2
09 15.06 ЮВ 7 10 км 3/3 600 м
[Cu med, cong]
+20.6 +17.8 84 +24 +25 комфорт 1017.3 1010.8
12 15.06 ЮВ 8 10 км 4/4 600 м
[Cu med, cong]
+22.6 +17.1 71 +27 +29 душно 1016.3 1009.8
15 15.06 ЮВ 9 10 км 9/9 450 м
[Cu Sc]
+20.8 +17.4 81 +24 +24 комфорт 1014.8 1008.3
18 15.06 ЮВ 9 10 км в посл. час ливневой дождь 9/6 450 м
[Cu Sc Ac trans Cc]
+21.0 +17.1 78 +24 +25 комфорт 1012.9 1006.4 +22.6 0.8
21 15.06 ЮВ 6 6000 м осадки на расстоянии 9/5 210 м
[Cu Sc Cs]
+18.7 +17.0 90 +19 +19 1011.7 1005.2
00 16.06 Ю 11 8000 м слаб. ливневой дождь 9/9 300 м
[Cu Sc]
+18.3 +17.2 93 +18 +18 1010.0 1003.6 0.5
03 16.06 Ю 6 10 км {ливн. осадки} 10/5 360 м
[Cu Sc Ac As]
+18.8 +17.6 93 +20 +20 1008.5 1002.0
06 16.06 ЮВ 8 10 км {ливн. осадки} 9/9 240 м
[Cu Sc]
+18.8 +17.3 91 +19 +19 1007.3 1000.8 +18.2 0.5
09 16.06 ЮВ 7 10 км 10/10 210 м
[Cu Sc]
+19.1 +17.6 91 +20 +20 1006.3 999.8
12 16.06 ЮВ 4 8000 м слаб. дождь 10/6 240 м
[Cu med, cong As op]
+19.2 +18.3 95 +21 +22 комфорт 1005.6 999.2 5
15 16.06 Ю 2 2000 м слаб. дождь 10/4 450 м
[Cu Sc As op]
+17.2 +16.3 94 +18 +20 1003.4 997.0
18 16.06 В 5 900 м в посл. час гроза {ливн. осадки} 10/6 150 м
[Cb cap As op]
+17.0 +16.2 95 +16 +17 998.7 992.2 +19.1 41
21 16.06 ЮЗ 11 8000 м слаб. дождь 8/8 240 м
[Cu Sc]
+14.6 +14.0 96 +12 +12 996.8 990.3
00 17.06 С 8 10 км {ливн. осадки, дождь} 6/6 420 м
[Cu med, cong]
+16.9 +15.5 91 +16 +16 1000.2 993.7 7
03 17.06 СЗ 8 10 км 8/4 420 м
[Cu med, cong As op]
+17.6 +15.9 90 +17 +17 1002.8 996.3
06 17.06 СЗ 9 10 км 4/4 240 м
[Cu Sc]
+18.8 +17.1 90 +19 +19 1004.8 998.3 +14.6 7
09 17.06 СЗ 9 10 км 9/9 210 м
[Cu Sc]
+19.2 +17.7 91 +20 +20 1006.8 1000.3
12 17.06 С 11 10 км 8/8 210 м
[Cu Sc]
+20.0 +17.5 86 +22 +22 комфорт 1009.0 1002.5
15 17.06 С 8 10 км {морось} 10/10 240 м
[Cu Sc]
+20.8 +17.4 81 +24 +24 комфорт 1011.1 1004.6
18 17.06 С 8 10 км {ливн. осадки} 10/10 240 м
[Cu Sc]
+19.4 +16.7 84 +21 +21 комфорт 1012.4 1005.9 +20.9 0.2

 

Местоположение метеостанции Аэропорт Лажеша (Португалия): широта 38.77 долгота -27.10 высота над уровнем моря 54 м.

В архиве по умолчанию представлена погода в Аэропорту Лажеша за последнюю неделю. Архивные данные за месяц целиком и за предыдущие месяцы, начиная с января 2011 года, Вы можете получить, выбрав интересующий диапазон дат из раскрывающегося списка и нажав кнопку "Ввод!".


*Определитесь, кто Вы:
робот инопланетянин человек

Внимание! Время в таблицах - всемирное. Для получения местного времени необходимо прибавить поправку, которая равна 0 ч.

Смотрите также архив погоды в соседних городах и на ближайших метеорологических станциях:

Погода в Ангра-ду-Эроижму (Португалия) (15 км)
Погода на Острове Грасьоса (Португалия) (88 км)
Погода в Сан-Жоржи (Португалия) (94 км)
Погода в Пико (Португалия) (119 км)
Погода в Орте (Португалия) (136 км)
Погода в Каштелу-Бранку (Португалия) (143 км)
Погода в Понта-Делгаде (Португалия) (168 км)
Погода в Санта-Марии (Португалия) (263 км)
Погода на Флошише (Португалия) (356 км)
Погода в Фуншале (Португалия) (1146 км)

Пояснения к столбцам:

Ветер - указаны скорость ветра в м/с - средняя за 10 мин, порывы в срок и между сроками (в фигурных скобках) и направление, откуда дует ветер: С - северный, СВ - северо-восточный, В - восточный, ЮВ - юго-восточный, Ю - южный, ЮЗ - юго-западный, З - западный, СЗ - северо-западный.
Видимость - горизонтальная дальность видимости в метрах или километрах. При видимости от 1 до 10 км при отсутствии осадков обычно наблюдается дымка, при ухудшении видимости до 1 км и менее - туман. В сухую погоду видимость может ухудшаться дымом, пылью или мглою.
Явления - указаны атмосферные явления, наблюдавшиеся в срок или в последний час перед сроком; фигурными скобками обозначены явления, наблюдавшиеся между сроками (за 1-3 часа до срока); квадратными скобками обозначены град или гололедные отложения с указанием их диаметра в мм.
Облачность - указаны через наклонную черту общая и нижняя облачность в баллах и высота нижней границы облаков в метрах; квадратными скобками обозначены формы облаков: Ci - перистые, Cs - перисто-слоистые, Cc - перисто-кучевые, Ac - высококучевые, As - высокослоистые, Sc - слоисто-кучевые, Ns - слоисто-дождевые, Cu - кучевые, Cb - кучево-дождевые. Подробнее классификацию облаков см. в Атласе облаков (PDF).
T - Температура воздуха - температура, измеренная на высоте 2 м над землей.
Td - Температура точки росы - температура, при понижении до которой содержащийся в воздухе водяной пар достигнет насыщения.
f - Относительная влажность воздуха - влажноcть воздуха, измеренная на высоте 2 м над землей.
Te - Эффективная температура - температура, которую ощущает одетый по сезону человек в тени. Характеристика душности погоды. При расчете учитывается влияние влажности воздуха и скорости ветра на теплоощущения человека.
Tes - Эффективная температура на солнце - температура, которую ощущает человек, с поправкой на солнечный нагрев. Характеристика знойности погоды. Зависит от высоты солнца над горизонтом, облачности и скорости ветра. Ночью, в пасмурную погоду, а также при ветре 12 м/с и более поправка равна нулю.
P - Атмосферное давление - приведенное к уровню моря атмосферное давление.
Po - Атмосферное давление - измеренное на уровне метеостанции атмосферное давление.
Tmin - Минимальная температура - минимум температуры воздуха на высоте 2 м над землей.
Tmax - Максимальная температура - максимум температуры воздуха на высоте 2 м над землей.
R - Количество осадков - Количество выпавших осадков за период времени, мм. При наведении курсора мыши на число - период времени, за который выпало указанное количество осадков.
R24 - Количество осадков - Количество выпавших осадков за 24 часа, мм.
S - Снежный покров - Высота снежного покрова, см. При наведении курсора мыши на число - состояние снежного покрова и степень покрытия местности в баллах.